TimeCDT,TemperatureF,Dew PointF,Humidity,Sea Level PressureIn,VisibilityMPH,Wind Direction,Wind SpeedMPH,Gust SpeedMPH,PrecipitationIn,Events,Conditions,WindDirDegrees,DateUTC
12:53 AM,89.1,72.0,57,29.94,10.0,NE,9.2,-,N/A,,Mostly Cloudy,40,2013-08-01 05:53:00
1:53 AM,87.1,73.0,63,29.94,10.0,NE,5.8,-,N/A,,Mostly Cloudy,50,2013-08-01 06:53:00
2:53 AM,84.9,71.1,63,29.94,10.0,ENE,6.9,-,N/A,,Mostly Cloudy,60,2013-08-01 07:53:00
3:53 AM,84.0,71.1,65,29.94,10.0,NE,6.9,-,N/A,,Mostly Cloudy,50,2013-08-01 08:53:00
4:53 AM,82.0,72.0,71,29.94,10.0,NNE,5.8,-,N/A,,Mostly Cloudy,30,2013-08-01 09:53:00
5:53 AM,81.0,72.0,74,29.95,10.0,NE,5.8,-,N/A,,Mostly Cloudy,50,2013-08-01 10:53:00
6:53 AM,82.0,73.9,76,29.96,10.0,NE,6.9,-,N/A,,Mostly Cloudy,40,2013-08-01 11:53:00
7:53 AM,82.9,75.0,77,29.97,10.0,NE,6.9,-,N/A,,Mostly Cloudy,40,2013-08-01 12:53:00
8:53 AM,86.0,73.9,67,29.97,10.0,ENE,4.6,-,N/A,,Scattered Clouds,60,2013-08-01 13:53:00
9:53 AM,89.1,73.9,61,29.97,10.0,NNE,6.9,-,N/A,,Mostly Cloudy,30,2013-08-01 14:53:00
10:53 AM,91.9,71.1,50,29.97,10.0,Calm,Calm,-,N/A,,Scattered Clouds,0,2013-08-01 15:53:00
11:53 AM,95.0,70.0,44,29.97,10.0,NE,6.9,-,N/A,,Partly Cloudy,40,2013-08-01 16:53:00
12:53 PM,98.1,70.0,40,29.96,10.0,NNE,6.9,-,N/A,,Scattered Clouds,30,2013-08-01 17:53:00
1:53 PM,99.0,69.1,38,29.94,10.0,SE,6.9,-,N/A,,Scattered Clouds,140,2013-08-01 18:53:00
2:53 PM,100.0,68.0,35,29.92,10.0,Variable,5.8,-,N/A,,Mostly Cloudy,0,2013-08-01 19:53:00
3:53 PM,100.9,64.9,31,29.91,10.0,SE,6.9,-,N/A,,Mostly Cloudy,140,2013-08-01 20:53:00
4:53 PM,102.0,64.9,30,29.88,10.0,East,10.4,-,N/A,,Scattered Clouds,90,2013-08-01 21:53:00
5:53 PM,100.9,64.9,31,29.86,10.0,Variable,4.6,-,N/A,,Partly Cloudy,0,2013-08-01 22:53:00
6:53 PM,99.0,64.0,32,29.85,10.0,SE,5.8,-,N/A,,Partly Cloudy,130,2013-08-01 23:53:00
7:53 PM,97.0,62.1,31,29.86,10.0,East,5.8,-,N/A,,Mostly Cloudy,90,2013-08-02 00:53:00
8:53 PM,96.1,66.9,38,29.88,10.0,East,12.7,-,N/A,,Mostly Cloudy,100,2013-08-02 01:53:00
9:53 PM,93.0,66.9,42,29.88,10.0,East,9.2,-,N/A,,Partly Cloudy,100,2013-08-02 02:53:00
10:53 PM,91.0,68.0,47,29.89,10.0,ESE,11.5,-,N/A,,Partly Cloudy,110,2013-08-02 03:53:00
11:53 PM,89.1,66.9,48,29.89,10.0,SE,13.8,21.9,N/A,,Partly Cloudy,130,2013-08-02 04:53:00